Home   Weather   Lowell   Past weeks

Flag for USA Past Weather in Lowell, Massachusetts, USA — Yesterday and Last 2 Weeks

Now
31 °F

Clear.


Feels Like: 26 °F
Forecast: 22 / 41 °F
Wind: 5 mph from Southwest

Location: Hanscom Field

Current Time: Jan 17, 2017 at 2:05:21 am

Latest Report: Jan 17, 2017 at 12:56 am


Visibility: 10 mi

Pressure: 30.24 "Hg

Humidity: 54%

Dew Point: 16 °F

Location of LowellLocation

Past Weather in Lowell — Graph

°F

Lowell Temperature Yesterday

Maximum temperature yesterday: 40 °F (at 12:56 pm)
Minimum temperature yesterday: 13 °F (at 5:56 am)
Average temperature yesterday: 28 °F

High & Low Weather Summary for the Past Weeks

 TemperatureHumidityPressure
High61 °F (Jan 12, 1:56 pm)93% (Jan 12, 2:25 am)30.75 "Hg (Jan 12, 2:25 am)
Low-2 °F (Jan 10, 5:56 am)17% (Jan 13, 5:56 pm)29.34 "Hg (Jan 4, 1:24 am)
Average30 °F67%30.20 "Hg
* Reported Jan 2 12:56 am — Jan 17 12:56 am, Lowell, Weather by CustomWeather, © 2017

Note: Actual official high and low records may vary slightly from our data, if they occured in-between our weather recording intervals... More about our weather records

Advertising

Lowell Weather History for the Previous 24 Hours

Scroll right to see more
 ConditionsComfort  
Time TempWeatherWind HumidityBarometerVisibility
12:56 am
Tue, Jan 17
31 °FClear.5 mph54%30.24 "Hg10 mi
11:56 pm
Mon, Jan 16
32 °FClear.6 mph52%30.23 "Hg10 mi
10:56 pm31 °FClear.8 mph54%30.25 "Hg10 mi
9:56 pm33 °FClear.8 mph49%30.27 "Hg10 mi
8:56 pm34 °FClear.7 mph48%30.28 "Hg10 mi
7:56 pm35 °FPassing clouds.7 mph44%30.28 "Hg10 mi
6:56 pm36 °FClear.9 mph40%30.29 "Hg10 mi
5:56 pm37 °FClear.7 mph37%30.30 "Hg10 mi
4:56 pm37 °FClear.7 mph39%30.30 "Hg10 mi
3:56 pm40 °FScattered clouds.7 mph33%30.32 "Hg10 mi
2:56 pm40 °FScattered clouds.7 mph32%30.32 "Hg10 mi
2:13 pm40 °FPassing clouds.10 mph32%30.27 "Hg10 mi
1:56 pm40 °FSunny.13 mph32%30.32 "Hg10 mi
12:56 pm40 °FSunny.12 mph33%30.35 "Hg10 mi
11:56 am37 °FSunny.13 mph37%30.37 "Hg10 mi
10:56 am35 °FSunny.10 mph44%30.42 "Hg10 mi
9:56 am29 °FSunny.6 mph61%30.46 "Hg10 mi
8:56 am21 °FSunny.No wind78%30.46 "Hg10 mi
7:56 am15 °FSunny.No wind83%30.47 "Hg10 mi
6:56 am13 °FClear.No wind81%30.47 "Hg10 mi
5:56 am13 °FClear.No wind81%30.47 "Hg10 mi
4:56 am15 °FClear.No wind80%30.47 "Hg10 mi
3:56 am15 °FClear.No wind80%30.46 "Hg10 mi
2:56 am15 °FClear.No wind77%30.47 "Hg10 mi
Weather by CustomWeather, © 2017

See weather overviewHow to use our weather pages